DateTimeUTC,F1_A11,F1_S11,BsB_S11,BsG_S11,BsR_S11,BbsB_S11,BbsG_S11,BbsR_S11,BaB_A11,BaG_A11,BaR_A11,Tu_S11,T_S11,Uu_S11,U_S11,P_S11,T1_A11
2021-07-06T06:00:00Z,00000200,20000000,,,,,,,0000.05,-000.18,0000.00,19.2,26.0,05.0,03.3,0663.8,31.2
2021-07-06T06:01:00Z,00000200,20000000,,,,,,,-000.40,-000.28,-000.10,19.2,26.0,05.0,03.3,0663.8,31.2
2021-07-06T06:02:00Z,00000200,20000000,,,,,,,0000.12,-000.21,-000.23,19.2,26.0,05.0,03.3,0663.8,31.2
2021-07-06T06:03:00Z,00000200,60000000,,,,,,,0000.09,0000.77,0000.32,19.2,26.0,05.0,03.3,0663.8,31.1
2021-07-06T06:04:00Z,00000200,40000000,0000.29,0000.20,0000.00,0000.30,-000.10,0000.04,0000.17,-000.12,0000.13,19.2,25.7,05.1,03.4,0664.7,31.1
2021-07-06T06:05:00Z,00000200,00000000,-000.13,-000.22,0000.03,0000.47,0000.00,0000.11,0000.07,-000.13,-000.16,19.2,25.7,05.3,03.6,0664.8,31.1
2021-07-06T06:06:00Z,00000200,00000000,-000.01,0000.03,0000.45,0000.04,0000.12,0000.16,-000.05,-000.16,0000.18,19.2,25.6,05.2,03.5,0664.8,31.1
2021-07-06T06:07:00Z,00000200,00000000,0000.16,-000.18,0000.17,0000.47,0000.04,0000.03,-000.06,0000.24,-000.15,19.3,25.7,05.2,03.5,0664.8,31.2
2021-07-06T06:08:00Z,00000200,00000000,0000.07,-000.34,-000.07,-000.13,-000.12,-000.13,0000.02,0000.03,0000.14,19.4,25.7,05.2,03.6,0664.8,31.2
2021-07-06T06:09:00Z,00000200,00000000,-000.27,-000.00,0000.51,-000.68,0000.00,0000.49,-000.11,0000.09,-000.02,19.5,25.7,05.3,03.6,0664.8,31.2
2021-07-06T06:10:00Z,00000200,00000000,-000.08,-000.35,-000.01,0000.37,-000.32,0000.28,0000.65,0000.05,0000.29,19.6,25.8,05.2,03.6,0664.9,31.2
2021-07-06T06:11:00Z,00000200,00000000,-000.21,-000.11,-000.26,-000.55,0000.29,0000.26,-000.61,-000.15,-000.39,19.6,25.8,05.2,03.6,0664.8,31.2
2021-07-06T06:12:00Z,00000200,00000000,-000.04,0000.16,0000.27,0000.02,-000.12,0000.04,0000.21,0000.09,0000.05,19.6,25.8,05.2,03.6,0664.8,31.2
2021-07-06T06:13:00Z,00000200,00000000,0000.07,0000.18,0000.26,0000.09,-000.14,-000.02,-000.39,0000.07,-000.04,19.6,25.8,05.1,03.5,0664.8,31.2
2021-07-06T06:14:00Z,00000200,00000000,-000.01,0000.02,0000.00,0000.05,-000.15,-000.02,0000.44,-000.15,0000.27,19.5,25.8,05.2,03.6,0664.8,31.2
2021-07-06T06:15:00Z,00000200,00000000,-000.07,-000.23,0000.26,-000.19,-000.24,0000.02,-000.10,0000.01,-000.22,19.5,25.8,05.2,03.5,0664.8,31.2
2021-07-06T06:16:00Z,00000200,00000000,-000.20,-000.20,0000.52,-000.16,-000.09,0000.30,0000.10,-000.08,-000.10,19.5,25.7,05.1,03.5,0664.8,31.2
2021-07-06T06:17:00Z,00000200,00000000,-000.71,-000.25,0000.36,0000.09,-000.22,0000.13,-000.13,0000.10,0000.07,19.4,25.7,05.2,03.6,0664.7,31.1
2021-07-06T06:18:00Z,00000200,00000000,-000.32,-000.32,-000.20,-000.36,-000.23,-000.08,-000.27,-000.03,-000.01,19.4,25.7,05.1,03.5,0664.7,31.1
2021-07-06T06:19:00Z,00000200,00000000,-000.24,-000.15,-000.13,0000.00,0000.06,0000.27,0000.35,-000.29,0000.09,19.4,25.7,05.1,03.5,0664.7,31.1
2021-07-06T06:20:00Z,00000200,00000000,0000.38,-000.14,0000.24,-000.43,0000.01,0000.41,-000.15,0000.18,-000.06,19.3,25.6,05.2,03.5,0664.6,31.1
2021-07-06T06:21:00Z,00000200,00000000,0000.61,-000.18,0000.20,-000.00,-000.08,0000.41,0000.22,0000.03,0000.01,19.4,25.6,05.1,03.5,0664.6,31.1
2021-07-06T06:22:00Z,00000200,00000000,0000.27,-000.10,0000.11,-000.18,-000.20,0000.02,-000.07,0000.15,0000.24,19.5,25.7,05.2,03.5,0664.6,31.2
2021-07-06T06:23:00Z,00000200,00000000,-000.02,-000.30,0000.05,0000.28,-000.05,0000.13,-000.05,0000.15,-000.33,19.6,25.7,05.1,03.5,0664.6,31.2
2021-07-06T06:24:00Z,00000200,00000000,0000.43,-000.16,0000.07,-000.22,-000.02,0000.36,-000.25,-000.08,-000.09,19.7,25.8,05.0,03.4,0664.6,31.2
2021-07-06T06:25:00Z,00000200,00000000,-000.04,-000.03,0000.24,-000.56,0000.23,0000.22,0000.41,0000.01,0000.45,19.7,25.8,05.0,03.5,0664.6,31.2
2021-07-06T06:26:00Z,00000200,00000000,0000.35,0000.01,0000.13,0000.02,-000.04,-000.11,-000.53,-000.39,-000.18,19.7,25.8,05.0,03.4,0664.6,31.2
2021-07-06T06:27:00Z,00000200,00000000,0000.68,-000.07,0000.07,-000.08,-000.31,-000.01,0000.20,0000.05,-000.23,19.7,25.9,05.0,03.4,0664.6,31.2
2021-07-06T06:28:00Z,00000200,00000000,-000.04,0000.00,-000.13,-000.09,-000.05,-000.13,-000.21,-000.09,0000.13,19.7,25.8,04.9,03.4,0664.6,31.2
2021-07-06T06:29:00Z,00000200,00000000,0000.51,0000.04,0000.05,-000.18,-000.07,0000.36,0000.06,-000.25,-000.23,19.6,25.8,04.9,03.4,0664.7,31.2
2021-07-06T06:30:00Z,00000200,00000000,0000.25,-000.41,-000.15,0000.08,-000.05,-000.02,0000.12,-000.14,0000.03,19.6,25.8,04.9,03.4,0664.7,31.2
2021-07-06T06:31:00Z,00000200,00000000,-000.27,-000.27,-000.18,-000.31,0000.14,-000.18,-000.12,0000.39,0000.14,19.6,25.8,04.9,03.4,0664.8,31.2
2021-07-06T06:32:00Z,00000200,00000000,0000.47,-000.22,0000.15,-000.00,-000.01,0000.01,-000.19,-000.02,0000.04,19.6,25.8,04.9,03.3,0664.8,31.2
2021-07-06T06:33:00Z,00000200,00000000,0000.15,-000.25,-000.03,-000.19,0000.03,-000.04,0000.18,0000.02,-000.03,19.5,25.7,04.9,03.4,0664.8,31.2
2021-07-06T06:34:00Z,00000200,00000000,0000.43,-000.03,-000.03,-000.09,0000.05,0000.23,0000.25,0000.11,-000.16,19.5,25.7,04.9,03.4,0664.7,31.2
2021-07-06T06:35:00Z,00000200,00000000,0000.25,0000.13,0000.26,0000.23,0000.08,0000.21,-000.23,-000.40,-000.01,19.4,25.7,05.0,03.4,0664.7,31.1
2021-07-06T06:36:00Z,00000200,00000000,0000.52,0000.15,-000.09,-000.41,0000.02,0000.07,0000.23,0000.22,0000.14,19.4,25.7,05.0,03.4,0664.7,31.1
2021-07-06T06:37:00Z,00000200,00000000,-000.09,-000.40,0000.23,-000.13,-000.16,0000.09,-000.13,0000.14,0000.07,19.4,25.7,05.0,03.4,0664.8,31.1
2021-07-06T06:38:00Z,00000200,00000000,-000.58,-000.03,0000.05,-000.35,-000.14,0000.14,0000.16,0000.17,-000.20,19.3,25.6,05.0,03.4,0664.8,31.1
2021-07-06T06:39:00Z,00000200,00000000,0000.20,0000.00,-000.12,-000.17,-000.07,-000.07,-000.17,-000.22,0000.13,19.3,25.6,05.0,03.4,0664.8,31.1
2021-07-06T06:40:00Z,00000200,00000000,0000.94,-000.06,0000.31,0000.05,-000.05,0000.21,-000.02,-000.06,0000.08,19.3,25.6,05.1,03.4,0664.8,31.1
2021-07-06T06:41:00Z,00000200,00000000,0000.09,-000.02,-000.04,0000.10,-000.19,0000.18,-000.04,0000.17,-000.25,19.3,25.6,04.9,03.3,0664.7,31.1
2021-07-06T06:42:00Z,00000200,00000000,-000.43,-000.02,-000.26,-000.28,0000.14,0000.14,0000.10,-000.24,0000.30,19.2,25.5,05.0,03.4,0664.7,31.1
2021-07-06T06:43:00Z,00000200,00000000,0000.07,-000.16,0000.09,0000.35,0000.12,0000.14,-000.01,0000.02,-000.05,19.2,25.5,04.9,03.3,0664.7,31.1
2021-07-06T06:44:00Z,00000200,00000000,0000.27,-000.33,-000.25,0000.16,0000.07,-000.03,0000.08,-000.09,-000.00,19.2,25.5,05.1,03.4,0664.7,31.1
2021-07-06T06:45:00Z,00000200,00000000,-000.08,-000.31,0000.00,0000.16,0000.26,-000.07,-000.13,0000.37,-000.04,19.2,25.5,05.0,03.4,0664.7,31.1
2021-07-06T06:46:00Z,00000200,00000000,0000.10,-000.14,0000.21,-000.27,-000.20,-000.24,-000.20,0000.23,-000.03,19.1,25.5,05.1,03.5,0664.6,31.1
2021-07-06T06:47:00Z,00000200,00000000,0000.11,-000.04,0000.30,0000.43,-000.08,0000.43,0000.19,-000.39,-000.11,19.1,25.4,05.0,03.4,0664.7,31.1
2021-07-06T06:48:00Z,00000200,00000000,0000.57,-000.01,0000.16,0000.04,-000.17,0000.14,-000.11,-000.07,0000.12,19.1,25.4,05.1,03.4,0664.7,31.1
2021-07-06T06:49:00Z,00000200,00000000,0000.29,-000.19,0000.05,-000.33,-000.13,0000.05,0000.16,0000.03,-000.11,19.1,25.4,04.9,03.4,0664.7,31.1
2021-07-06T06:50:00Z,00000200,00000000,-000.09,-000.31,-000.03,0000.41,0000.34,-000.23,-000.09,-000.45,-000.01,19.1,25.4,05.0,03.4,0664.7,31.1
2021-07-06T06:51:00Z,00000200,00000000,-000.18,0000.03,-000.27,-000.04,-000.03,-000.01,0000.06,0000.51,-000.29,19.1,25.4,04.9,03.4,0664.7,31.1
2021-07-06T06:52:00Z,00000200,00000000,0000.36,-000.34,-000.08,-000.43,-000.15,0000.00,0000.22,-000.02,0000.31,19.2,25.4,04.9,03.4,0664.7,31.2
2021-07-06T06:53:00Z,00000200,00000000,0000.40,-000.37,0000.18,0000.06,0000.11,0000.27,-000.29,-000.00,0000.19,19.3,25.5,04.9,03.4,0664.6,31.2
2021-07-06T06:54:00Z,00000200,00000000,0000.11,-000.01,-000.02,-000.09,0000.02,-000.04,0003.72,0003.22,0002.18,19.4,25.5,04.9,03.3,0664.6,31.2
2021-07-06T06:55:00Z,00000200,00000000,0001.10,0000.24,0000.06,0000.34,0000.29,0000.23,0010.61,0009.58,0007.38,19.5,25.6,04.8,03.3,0664.7,31.2
2021-07-06T06:56:00Z,00000200,00000000,0000.42,0000.25,0000.29,-000.27,-000.17,0000.33,0013.22,0012.25,0009.23,19.6,25.7,04.8,03.4,0664.7,31.2
2021-07-06T06:57:00Z,00000200,40000000,,,,,,,0003.22,0002.57,0002.16,19.7,25.7,04.7,03.3,0664.7,31.2
2021-07-06T06:58:00Z,00000200,60000000,,,,,,,0000.00,0000.06,-000.16,19.5,25.9,04.9,03.3,0663.7,31.2
2021-07-06T06:59:00Z,00000200,20000000,,,,,,,-000.04,-000.05,0000.15,19.5,26.0,04.7,03.2,0663.7,31.2
